Terug naar catalogus

CZ-6A DEB

ActiefPO
NORAD 60630·DEBRIS·🇨🇳 China

Gelanceerd Aug 6, 2024 vanaf Taiyuan Satellite Launch Center

Loading…

Volgende Passages (komende 24 uur)

TLE

VersSource: Space-Track

Epoch: Sep 14, 2026, 06:39 UTC

1 60630U 24140AF  26257.27713530  .00099610  00000-0  27871-2 0  9998
2 60630  88.2680 183.5834 0056489  95.0134 265.7570 15.34661782113937

Volg CZ-6A DEB in realtime met AllMySat

Download on the App Store